1514480400.69,4210,5.69,71546.8,-5.73,-7.11,-7.05,0,*63
1514480401.91,4211,5.69,71560.8,-5.73,-7.19,-7.11,0,*6F
1514480403.14,4212,5.69,71566.8,-5.73,-7.11,-7.19,0,*6C
1514480404.39,4213,5.69,71560.5,-5.73,-7.05,-7.05,0,*65
1514480405.61,4214,5.69,71554.0,-5.71,-7.01,-7.15,0,*65
1514480406.85,4215,5.69,71554.5,-5.71,-7.05,-7.05,0,*61
1514480408.09,4216,5.69,71548.8,-5.71,-7.05,-7.05,0,*62
1514480409.34,4217,5.69,71558.5,-5.71,-6.93,-6.93,0,*63
1514480410.58,4218,5.69,71558.3,-5.71,-6.93,-6.93,0,*6C
1514480411.84,4219,5.69,71550.8,-5.73,-6.93,-7.05,0,*61
1514480413.11,4220,5.69,71548.3,-5.73,-6.97,-6.97,0,*65
1514480414.33,4221,5.69,71554.3,-5.73,-6.85,-6.85,0,*64
1514480415.57,4222,5.63,71554.8,-5.73,-6.85,-6.93,0,*60
1514480416.8,4223,5.69,71552.5,-5.73,-6.85,-6.93,0,*61
1514480418.02,4224,5.69,71556.0,-5.75,-6.85,-6.97,0,*64
1514480419.28,4225,5.69,71562.5,-5.73,-6.93,-7.05,0,*6E
1514480420.52,4226,5.69,71558.3,-5.73,-6.85,-6.93,0,*64
1514480421.79,4227,5.69,71562.5,-5.73,-6.93,-6.93,0,*62
1514480423.03,4228,5.69,71560.8,-5.73,-6.85,-6.93,0,*6A
1514480424.24,4229,5.69,71562.5,-5.73,-6.73,-6.85,0,*65
1514480425.46,4230,5.69,71564.3,-5.73,-6.81,-6.85,0,*60
1514480426.65,4231,5.63,71566.0,-5.75,-6.81,-6.85,0,*67
1514480427.84,4232,5.63,71560.5,-5.75,-6.73,-6.85,0,*69
1514480429.07,4233,5.69,71562.5,-5.75,-6.81,-6.93,0,*62
1514480430.26,4234,5.69,71564.0,-5.75,-6.73,-6.85,0,*6F
1514480431.47,4235,5.69,71568.3,-5.73,-6.73,-6.73,0,*61
1514480432.65,4236,5.69,71568.3,-5.75,-6.69,-6.69,0,*64
1514480433.85,4237,5.69,71562.5,-5.75,-6.73,-6.81,0,*68
1514480435.06,4238,5.69,71556.5,-5.73,-6.85,-6.85,0,*6C
1514480436.25,4239,5.69,71562.0,-5.75,-6.85,-6.85,0,*6B
1514480437.48,4240,5.69,71568.0,-5.73,-6.73,-6.81,0,*6E
1514480438.69,4241,5.69,71566.3,-5.73,-6.69,-6.73,0,*69
1514480439.89,4242,5.69,71556.0,-5.75,-6.81,-6.81,0,*67
1514480441.11,4243,5.69,71560.0,-5.73,-6.81,-6.81,0,*60
1514480442.36,4244,5.69,71558.8,-5.73,-6.81,-6.93,0,*64
1514480443.57,4245,5.69,71554.0,-5.73,-6.85,-6.85,0,*66
1514480444.78,4246,5.69,71554.3,-5.73,-6.85,-6.85,0,*65
1514480445.98,4247,5.69,71556.3,-5.75,-6.73,-6.81,0,*6F
1514480447.19,4248,5.69,71558.0,-5.73,-6.73,-6.73,0,*6B
1514480448.4,4249,5.63,71562.8,-5.75,-6.81,-6.81,0,*6C
1514480449.64,4250,5.69,71552.3,-5.73,-6.93,-6.85,0,*65
1514480450.9,4251,5.69,71548.8,-5.73,-6.97,-7.05,0,*69
1514480452.14,4252,5.69,71542.0,-5.73,-6.85,-6.93,0,*67
1514480453.4,4253,5.69,71544.0,-5.73,-7.05,-6.97,0,*6B
1514480454.63,4254,5.69,71540.0,-5.73,-7.11,-7.11,0,*66
1514480455.89,4255,5.69,71538.0,-5.73,-7.05,-7.05,0,*67
1514480457.12,4256,5.63,71526.8,-5.73,-7.11,-7.05,0,*61
1514480458.36,4257,5.69,71542.3,-5.75,-6.97,-7.05,0,*69
1514480459.6,4258,5.69,71544.8,-5.75,-6.97,-6.97,0,*6C
1514480460.84,4259,5.69,71540.5,-5.75,-6.97,-7.05,0,*67
1514480462.04,4260,5.63,71528.8,-5.75,-7.23,-7.19,0,*6E
1514480463.24,4261,5.63,71526.5,-5.75,-7.11,-7.23,0,*67
1514480464.44,4262,5.69,71530.5,-5.75,-7.19,-7.23,0,*6C
1514480465.67,4263,5.69,71538.3,-5.75,-7.05,-7.05,0,*64
1514480466.89,4264,5.69,71534.3,-5.75,-7.05,-7.19,0,*6E
1514480468.09,4265,5.63,71534.8,-5.75,-7.11,-7.23,0,*63
1514480469.31,4266,5.63,71538.3,-5.75,-7.05,-7.19,0,*6C
1514480470.53,4267,5.69,71540.5,-5.75,-7.05,-7.19,0,*6D
1514480471.75,4268,5.69,71564.0,-5.75,-7.05,-7.11,0,*6A
1514480472.99,4269,5.63,71560.0,-5.75,-6.93,-7.05,0,*60
1514480474.23,4270,5.69,71562.5,-5.75,-6.93,-6.97,0,*62
1514480475.43,4271,5.69,71552.5,-5.75,-6.85,-7.11,0,*6B
1514480476.65,4272,5.69,71554.5,-5.75,-6.93,-7.11,0,*6F
1514480477.85,4273,5.69,71566.5,-5.75,-6.85,-7.11,0,*69
1514480479.07,4274,5.69,71556.8,-5.75,-6.93,-7.19,0,*61
1514480480.31,4275,5.63,71548.8,-5.73,-7.05,-7.23,0,*61
1514480481.54,4276,5.69,71550.5,-5.75,-6.97,-7.11,0,*6F
1514480482.76,4277,5.69,71548.0,-5.73,-6.81,-6.85,0,*63
1514480483.95,4278,5.69,71548.0,-5.75,-6.73,-6.85,0,*67
1514480485.14,4279,5.69,71552.0,-5.75,-6.59,-6.73,0,*67
1514480486.33,4280,5.63,71546.5,-5.75,-6.69,-6.73,0,*62
1514480487.51,4281,5.63,71548.5,-5.75,-6.69,-6.69,0,*68
1514480488.69,4282,5.69,71546.0,-5.75,-6.69,-6.69,0,*6B
1514480489.88,4283,5.63,71544.5,-5.75,-6.59,-6.69,0,*69
1514480491.07,4284,5.69,71546.5,-5.75,-6.69,-6.69,0,*6D
1514480492.25,4285,5.69,71544.5,-5.75,-6.69,-6.69,0,*6C
1514480493.44,4286,5.69,71542.3,-5.75,-6.59,-6.69,0,*6C
1514480494.64,4287,5.69,71540.8,-5.75,-6.73,-6.81,0,*63
1514480495.83,4288,5.69,71542.0,-5.75,-6.69,-6.73,0,*6A
1514480497.02,4289,5.69,71536.3,-5.75,-6.73,-6.73,0,*60
1514480498.2,4290,5.69,71534.3,-5.75,-6.69,-6.73,0,*63
1514480499.39,4291,5.69,71538.3,-5.75,-6.73,-6.69,0,*62
1514480500.57,4292,5.69,71538.5,-5.75,-6.69,-6.69,0,*6A
1514480501.76,4293,5.69,71540.3,-5.75,-6.73,-6.73,0,*6B
1514480502.95,4294,5.69,71544.8,-5.75,-6.69,-6.73,0,*67
1514480504.14,4295,5.69,71542.3,-5.75,-6.59,-6.73,0,*65
1514480505.33,4296,5.69,71536.5,-5.75,-6.59,-6.69,0,*6D
1514480506.52,4297,5.69,71526.0,-5.75,-6.73,-6.73,0,*6F
1514480507.72,4298,5.69,71526.0,-5.75,-6.59,-6.81,0,*65
1514480508.94,4299,5.69,71538.5,-5.77,-6.73,-6.85,0,*6A
1514480510.15,4300,5.69,71540.8,-5.77,-6.73,-6.85,0,*6B
1514480511.37,4301,5.63,71536.8,-5.77,-6.85,-6.85,0,*63
1514480512.59,4302,5.69,71542.0,-5.77,-6.77,-6.89,0,*61
1514480513.77,4303,5.69,71554.0,-5.75,-6.69,-6.85,0,*61
1514480514.96,4304,5.69,71556.5,-5.75,-6.69,-6.85,0,*66
1514480516.15,4305,5.69,71556.3,-5.75,-6.73,-6.85,0,*6C
1514480517.35,4306,5.69,71548.3,-5.75,-6.81,-6.85,0,*62
1514480518.54,4307,5.69,71538.3,-5.75,-6.73,-6.85,0,*6E
1514480519.72,4308,5.69,71534.0,-5.75,-6.69,-6.85,0,*6A
1514480520.92,4309,5.69,71544.5,-5.75,-6.73,-6.81,0,*64
1514480522.11,4310,5.69,71544.3,-5.75,-6.69,-6.81,0,*67
1514480523.31,4311,5.69,71548.0,-5.75,-6.59,-6.81,0,*65
1514480524.51,4312,5.63,71546.0,-5.75,-6.69,-6.81,0,*65
1514480525.7,4313,5.69,71546.0,-5.75,-6.73,-6.85,0,*6B
1514480526.9,4314,5.63,71546.8,-5.75,-6.73,-6.81,0,*68
1514480528.09,4315,5.69,71544.3,-5.75,-6.73,-6.81,0,*69
1514480529.29,4316,5.69,71550.8,-5.75,-6.73,-6.81,0,*6A
1514480530.51,4317,5.69,71554.8,-5.77,-6.73,-6.85,0,*6D
1514480531.69,4318,5.63,71552.0,-5.75,-6.73,-6.69,0,*62
1514480532.88,4319,5.63,71562.0,-5.75,-6.69,-6.69,0,*68
1514480534.14,4320,5.63,71560.5,-5.77,-6.63,-6.63,0,*60
1514480535.37,4321,5.69,71556.3,-5.77,-6.63,-6.73,0,*60
1514480536.61,4322,5.69,71556.3,-5.77,-6.63,-6.73,0,*63
1514480537.82,4323,5.69,71554.5,-5.79,-6.63,-6.73,0,*6C
1514480539.08,4324,5.69,71546.5,-5.77,-6.63,-6.63,0,*64
1514480540.34,4325,5.63,71540.3,-5.77,-6.63,-6.63,0,*65
1514480541.53,4326,5.63,71540.0,-5.75,-6.69,-6.59,0,*67
1514480542.73,4327,5.69,71546.0,-5.75,-6.59,-6.59,0,*65
1514480543.92,4328,5.63,71544.5,-5.75,-6.59,-6.69,0,*69
1514480545.15,4329,5.69,71560.0,-5.77,-6.63,-6.73,0,*68
1514480546.41,4330,5.63,71560.5,-5.77,-6.63,-6.63,0,*61
1514480547.67,4331,5.69,71558.5,-5.77,-6.63,-6.63,0,*60
1514480548.87,4332,5.63,71556.5,-5.75,-6.59,-6.59,0,*61
1514480550.06,4333,5.69,71558.3,-5.75,-6.59,-6.69,0,*63
1514480551.26,4334,5.69,71556.8,-5.75,-6.59,-6.59,0,*67
1514480552.45,4335,5.69,71558.5,-5.75,-6.59,-6.59,0,*66
1514480553.64,4336,5.69,71556.8,-5.75,-6.59,-6.69,0,*66
1514480554.84,4337,5.63,71558.5,-5.75,-6.59,-6.59,0,*64
1514480556.03,4338,5.69,71560.5,-5.75,-6.59,-6.69,0,*68
1514480557.21,4339,5.63,71554.5,-5.75,-6.55,-6.69,0,*65
1514480558.41,4340,5.63,71552.3,-5.75,-6.55,-6.59,0,*68
1514480559.6,4341,5.63,71550.5,-5.75,-6.55,-6.69,0,*6A
1514480560.82,4342,5.69,71554.3,-5.73,-6.59,-6.59,0,*60
1514480562.02,4343,5.63,71550.8,-5.73,-6.69,-6.69,0,*61
1514480563.21,4344,5.69,71552.3,-5.75,-6.69,-6.69,0,*60
1514480564.41,4345,5.63,71548.3,-5.73,-6.69,-6.69,0,*67
1514480565.62,4346,5.69,71552.8,-5.73,-6.69,-6.69,0,*64
1514480566.84,4347,5.69,71548.8,-5.73,-6.69,-6.59,0,*66
1514480568.04,4348,5.69,71548.5,-5.73,-6.69,-6.69,0,*6A
1514480569.24,4349,5.69,71548.0,-5.75,-6.59,-6.59,0,*6D
1514480570.43,4350,5.63,71548.3,-5.75,-6.59,-6.59,0,*65
1514480571.63,4351,5.63,71548.5,-5.75,-6.59,-6.59,0,*64
1514480572.83,4352,5.63,71546.3,-5.75,-6.59,-6.59,0,*67
1514480574.05,4353,5.69,71546.8,-5.73,-6.59,-6.59,0,*60
1514480575.24,4354,5.63,71548.3,-5.75,-6.59,-6.59,0,*61
1514480576.44,4355,5.63,71550.3,-5.75,-6.59,-6.59,0,*60
1514480577.63,4356,5.63,71552.3,-5.75,-6.59,-6.59,0,*63
1514480578.84,4357,5.63,71552.5,-5.73,-6.59,-6.69,0,*67
1514480580.06,4358,5.63,71556.3,-5.73,-6.59,-6.69,0,*68
1514480581.25,4359,5.69,71560.5,-5.75,-6.59,-6.69,0,*6F
1514480582.44,4360,5.63,71554.3,-5.75,-6.59,-6.59,0,*66
1514480583.63,4361,5.69,71556.8,-5.75,-6.59,-6.69,0,*64
1514480584.85,4362,5.69,71558.0,-5.73,-6.59,-6.59,0,*62
1514480586.03,4363,5.63,71560.3,-5.75,-6.69,-6.69,0,*65
1514480587.22,4364,5.69,71560.8,-5.75,-6.59,-6.69,0,*61
1514480588.42,4365,5.63,71556.5,-5.75,-6.59,-6.59,0,*63
1514480589.64,4366,5.69,71564.8,-5.73,-6.59,-6.59,0,*66
1514480590.83,4367,5.63,71558.8,-5.75,-6.59,-6.59,0,*61
1514480592.05,4368,5.69,71556.5,-5.73,-6.59,-6.59,0,*68
1514480593.25,4369,5.69,71556.0,-5.75,-6.59,-6.73,0,*67
1514480594.47,4370,5.69,71560.8,-5.73,-6.73,-6.81,0,*6C
1514480595.65,4371,5.63,71564.3,-5.75,-6.69,-6.69,0,*66
1514480596.84,4372,5.69,71566.5,-5.75,-6.69,-6.73,0,*6E
1514480598.03,4373,5.69,71562.3,-5.75,-6.69,-6.81,0,*62
1514480599.25,4374,5.63,71562.0,-5.73,-6.73,-6.85,0,*6C
1514480600.49,4375,5.69,71560.0,-5.73,-6.81,-6.93,0,*67
1514480601.73,4376,5.63,71562.5,-5.73,-6.81,-6.93,0,*64
1514480602.95,4377,5.63,71558.3,-5.73,-6.85,-6.85,0,*66
1514480604.16,4378,5.63,71546.5,-5.77,-6.77,-6.77,0,*6D
1514480605.36,4379,5.69,71546.0,-5.75,-6.81,-6.73,0,*63
1514480606.56,4380,5.69,71546.0,-5.75,-6.73,-6.81,0,*65
1514480607.75,4381,5.69,71546.0,-5.75,-6.73,-6.73,0,*69
1514480608.93,4382,5.63,71550.5,-5.75,-6.69,-6.73,0,*61
1514480610.12,4383,5.63,71550.3,-5.75,-6.69,-6.73,0,*60
1514480611.32,4384,5.63,71554.0,-5.75,-6.73,-6.81,0,*61
1514480612.51,4385,5.63,71556.0,-5.75,-6.69,-6.73,0,*66
1514480613.69,4386,5.63,71554.8,-5.75,-6.69,-6.69,0,*6E
1514480614.88,4387,5.69,71556.5,-5.75,-6.73,-6.73,0,*6F
1514480616.07,4388,5.63,71552.0,-5.75,-6.69,-6.73,0,*6B
1514480617.28,4389,5.63,71558.3,-5.77,-6.73,-6.77,0,*67
1514480618.47,4390,5.69,71560.5,-5.75,-6.69,-6.73,0,*62
1514480619.66,4391,5.69,71562.8,-5.75,-6.69,-6.73,0,*63
1514480620.87,4392,5.69,71562.3,-5.73,-6.69,-6.81,0,*6B
1514480622.09,4393,5.63,71556.3,-5.73,-6.59,-6.73,0,*64
1514480623.28,4394,5.69,71560.0,-5.75,-6.69,-6.73,0,*66
1514480624.5,4395,5.63,71562.0,-5.77,-6.77,-6.77,0,*6E
1514480625.69,4396,5.69,71560.3,-5.75,-6.59,-6.73,0,*67
1514480626.87,4397,5.63,71556.5,-5.75,-6.69,-6.69,0,*6E
1514480628.07,4398,5.63,71558.3,-5.75,-6.81,-6.73,0,*6C
1514480629.26,4399,5.63,71556.0,-5.75,-6.81,-6.85,0,*64
1514480630.46,4400,5.69,71558.5,-5.75,-6.73,-6.81,0,*6A
1514480631.66,4401,5.69,71562.8,-5.75,-6.73,-6.81,0,*6B
1514480632.85,4402,5.69,71566.0,-5.75,-6.73,-6.73,0,*65
1514480634.04,4403,5.69,71570.5,-5.75,-6.73,-6.73,0,*64
1514480635.23,4404,5.63,71570.3,-5.75,-6.73,-6.81,0,*6E
1514480636.42,4405,5.63,71562.3,-5.75,-6.69,-6.73,0,*69
1514480637.64,4406,5.63,71562.5,-5.77,-6.77,-6.77,0,*63
1514480638.83,4407,5.69,71568.0,-5.75,-6.73,-6.73,0,*60
1514480640.02,4408,5.69,71570.5,-5.75,-6.59,-6.69,0,*6C
1514480641.21,4409,5.69,71570.8,-5.75,-6.59,-6.69,0,*6D
1514480642.4,4410,5.63,71566.5,-5.75,-6.73,-6.73,0,*66
1514480643.62,4411,5.63,71564.5,-5.77,-6.77,-6.73,0,*61
1514480644.85,4412,5.69,71564.0,-5.77,-6.63,-6.73,0,*67
1514480646.11,4413,5.63,71560.3,-5.77,-6.63,-6.63,0,*67
1514480647.35,4414,5.63,71560.3,-5.77,-6.63,-6.73,0,*61
1514480648.61,4415,5.69,71560.5,-5.77,-6.63,-6.63,0,*61
1514480649.87,4416,5.63,71552.8,-5.77,-6.63,-6.63,0,*62
1514480651.11,4417,5.63,71556.0,-5.79,-6.63,-6.63,0,*6D
1514480652.37,4418,5.63,71556.3,-5.77,-6.63,-6.63,0,*6C
1514480653.63,4419,5.63,71558.0,-5.77,-6.63,-6.63,0,*6D
1514480654.89,4420,5.63,71564.0,-5.77,-6.63,-6.63,0,*67
1514480656.13,4421,5.63,71570.5,-5.77,-6.63,-6.73,0,*67
1514480657.34,4422,5.63,71560.8,-5.77,-6.73,-6.73,0,*65
1514480658.58,4423,5.63,71558.8,-5.77,-6.63,-6.73,0,*65
1514480659.79,4424,5.63,71556.3,-5.77,-6.73,-6.73,0,*63
1514480661.01,4425,5.63,71550.0,-5.77,-6.73,-6.77,0,*66
1514480662.22,4426,5.63,71552.3,-5.77,-6.77,-6.85,0,*6C
1514480663.44,4427,5.63,71560.8,-5.77,-6.85,-6.89,0,*6C
1514480664.63,4428,5.69,71562.0,-5.75,-6.73,-6.73,0,*6D
1514480665.84,4429,5.63,71556.8,-5.77,-6.85,-6.77,0,*63
1514480667.06,4430,5.69,71556.8,-5.77,-6.77,-6.89,0,*67
1514480668.25,4431,5.69,71554.3,-5.79,-6.85,-6.89,0,*65
1514480669.47,4432,5.63,71552.0,-5.77,-6.85,-6.89,0,*68
1514480670.68,4433,5.69,71552.0,-5.77,-6.89,-6.89,0,*65
1514480671.9,4434,5.63,71560.0,-5.77,-6.85,-6.85,0,*62
1514480673.11,4435,5.63,71556.5,-5.77,-6.85,-6.85,0,*63
1514480674.31,4436,5.63,71552.8,-5.79,-6.77,-6.85,0,*63
1514480675.52,4437,5.63,71554.5,-5.77,-6.85,-6.77,0,*6C
1514480676.71,4438,5.69,71562.0,-5.79,-6.85,-6.89,0,*6C
1514480677.93,4439,5.69,71560.0,-5.77,-6.77,-6.77,0,*6F
1514480679.15,4440,5.63,71560.0,-5.77,-6.85,-6.85,0,*61
1514480680.37,4441,5.63,71558.5,-5.77,-6.77,-6.77,0,*60
1514480681.56,4442,5.63,71562.8,-5.79,-6.77,-6.77,0,*6D
1514480682.78,4443,5.63,71556.8,-5.77,-6.77,-6.85,0,*6F
1514480684.0,4444,5.69,71562.0,-5.77,-6.77,-6.77,0,*65
1514480685.19,4445,5.63,71560.5,-5.75,-6.73,-6.73,0,*66
1514480686.4,4446,5.63,71558.5,-5.77,-6.73,-6.85,0,*6E
1514480687.59,4447,5.63,71552.3,-5.79,-6.73,-6.85,0,*61
1514480688.78,4448,5.69,71552.3,-5.79,-6.85,-6.85,0,*67
1514480690.0,4449,5.63,71554.5,-5.77,-6.73,-6.77,0,*6C
1514480691.21,4450,5.63,71554.8,-5.77,-6.85,-6.85,0,*60
1514480692.43,4451,5.63,71556.5,-5.77,-6.77,-6.73,0,*65
1514480693.65,4452,5.63,71562.8,-5.77,-6.73,-6.77,0,*66
1514480694.84,4453,5.63,71560.3,-5.79,-6.73,-6.73,0,*6D
1514480696.1,4454,5.63,71560.0,-5.77,-6.63,-6.63,0,*64
1514480697.31,4455,5.63,71562.8,-5.77,-6.73,-6.73,0,*65
1514480698.5,4456,5.69,71548.8,-5.79,-6.85,-6.77,0,*65
1514480699.72,4457,5.63,71554.0,-5.77,-6.77,-6.77,0,*67
1514480700.94,4458,5.63,71548.5,-5.77,-6.73,-6.77,0,*6C
1514480702.15,4459,5.63,71548.0,-5.77,-6.85,-6.77,0,*64
1514480703.37,4460,5.63,71556.3,-5.77,-6.73,-6.73,0,*63
1514480704.58,4461,5.63,71556.5,-5.79,-6.73,-6.63,0,*6D
1514480705.78,4462,5.63,71552.0,-5.79,-6.73,-6.73,0,*6F
1514480707.01,4463,5.69,71546.0,-5.79,-6.63,-6.63,0,*6E
1514480708.21,4464,5.63,71550.8,-5.79,-6.73,-6.73,0,*69
1514480709.4,4465,5.63,71544.5,-5.79,-6.73,-6.73,0,*68
1514480710.62,4466,5.63,71542.0,-5.77,-6.77,-6.77,0,*65
1514480711.8,4467,5.69,71550.8,-5.83,-6.77,-6.69,0,*60
1514480712.99,4468,5.63,71546.5,-5.79,-6.73,-6.85,0,*6C
1514480714.19,4469,5.63,71530.8,-5.79,-6.77,-6.77,0,*64
1514480715.38,4470,5.63,71544.5,-5.79,-6.77,-6.85,0,*61
1514480716.58,4471,5.63,71536.5,-5.79,-6.77,-6.77,0,*6D
1514480717.79,4472,5.69,71540.8,-5.77,-6.85,-6.77,0,*6D
1514480718.99,4473,5.63,71538.0,-5.79,-6.77,-6.85,0,*62
1514480720.18,4474,5.63,71540.3,-5.79,-6.85,-6.89,0,*64
1514480721.38,4475,5.69,71542.0,-5.79,-6.77,-6.77,0,*69
1514480722.59,4476,5.63,71540.8,-5.79,-6.85,-6.97,0,*69
1514480723.78,4477,5.63,71546.8,-5.79,-6.85,-6.85,0,*6B
1514480725.0,4478,5.63,71546.8,-5.77,-6.77,-6.89,0,*6B
1514480726.2,4479,5.63,71550.5,-5.79,-6.77,-6.85,0,*68
1514480727.39,4480,5.63,71550.5,-5.79,-6.73,-6.85,0,*6A
1514480728.58,4481,5.69,71554.3,-5.79,-6.73,-6.77,0,*66
1514480729.77,4482,5.69,71550.8,-5.79,-6.73,-6.77,0,*65
1514480730.96,4483,5.63,71542.5,-5.83,-6.81,-6.89,0,*6D
1514480732.15,4484,5.63,71546.8,-5.79,-6.73,-6.89,0,*62
1514480733.35,4485,5.63,71544.5,-5.79,-6.85,-6.85,0,*66
1514480734.54,4486,5.63,71542.5,-5.79,-6.85,-6.85,0,*65
1514480735.73,4487,5.63,71544.8,-5.79,-6.77,-6.85,0,*69
1514480736.93,4488,5.63,71544.0,-5.79,-6.77,-6.85,0,*66
1514480738.12,4489,5.63,71544.0,-5.79,-6.85,-6.77,0,*67
1514480739.31,4490,5.63,71544.5,-5.79,-6.85,-6.85,0,*62
1514480740.53,4491,5.63,71544.8,-5.79,-6.89,-6.97,0,*6C
1514480741.72,4492,5.63,71550.0,-5.79,-6.77,-6.77,0,*60
1514480742.92,4493,5.63,71550.3,-5.83,-6.81,-6.81,0,*64
1514480744.11,4494,5.69,71548.8,-5.79,-6.73,-6.73,0,*66
1514480745.31,4495,5.63,71546.5,-5.83,-6.81,-6.81,0,*62
1514480746.53,4496,5.63,71548.0,-5.85,-6.81,-6.81,0,*67
1514480747.73,4497,5.63,71542.3,-5.83,-6.89,-6.81,0,*68
1514480748.94,4498,5.63,71548.3,-5.83,-6.89,-6.93,0,*64
1514480750.14,4499,5.69,71554.0,-5.83,-6.81,-6.81,0,*6E
1514480751.33,4500,5.63,71562.0,-5.79,-6.77,-6.73,0,*6E
1514480752.53,4501,5.63,71546.0,-5.79,-6.77,-6.85,0,*66
1514480753.72,4502,5.63,71558.3,-5.83,-6.81,-6.89,0,*65
1514480754.92,4503,5.63,71568.0,-5.83,-6.81,-6.81,0,*6C
1514480756.12,4504,5.69,71574.5,-5.83,-6.81,-6.81,0,*6B
1514480757.34,4505,5.63,71578.5,-5.85,-6.77,-6.81,0,*65
1514480758.52,4506,5.63,71572.3,-5.83,-6.69,-6.69,0,*69
1514480759.71,4507,5.63,71568.0,-5.83,-6.77,-6.69,0,*67
1514480760.9,4508,5.63,71556.0,-5.83,-6.77,-6.77,0,*67
1514480762.1,4509,5.63,71546.0,-5.83,-6.81,-6.81,0,*66
1514480763.28,4510,5.63,71550.0,-5.83,-6.69,-6.77,0,*61
1514480764.46,4511,5.63,71550.8,-5.83,-6.69,-6.69,0,*6F
1514480765.66,4512,5.63,71548.8,-5.79,-6.73,-6.73,0,*69
1514480766.85,4513,5.63,71550.0,-5.79,-6.89,-6.85,0,*64
1514480768.04,4514,5.63,71544.3,-5.83,-6.81,-6.89,0,*62
1514480769.24,4515,5.69,71544.3,-5.83,-6.77,-6.81,0,*62
1514480770.43,4516,5.69,71542.8,-5.83,-6.77,-6.77,0,*68
1514480771.62,4517,5.69,71544.8,-5.83,-6.77,-6.77,0,*69
1514480772.8,4518,5.63,71546.3,-5.83,-6.69,-6.69,0,*66
1514480773.98,4519,5.63,71548.0,-5.83,-6.69,-6.69,0,*67
1514480775.18,4520,5.63,71528.0,-5.83,-6.81,-6.89,0,*65
1514480776.37,4521,5.63,71540.8,-5.83,-6.81,-6.89,0,*64
1514480777.58,4522,5.63,71544.0,-5.85,-6.69,-6.77,0,*66
1514480778.77,4523,5.63,71548.3,-5.83,-6.81,-6.81,0,*6E
1514480779.99,4524,5.69,71556.8,-5.85,-6.81,-6.89,0,*67
1514480781.21,4525,5.63,71558.5,-5.85,-6.81,-6.81,0,*6E
1514480782.4,4526,5.63,71552.3,-5.83,-6.69,-6.77,0,*64
1514480783.59,4527,5.63,71556.0,-5.83,-6.77,-6.77,0,*6A
1514480784.8,4528,5.63,71562.0,-5.85,-6.69,-6.77,0,*6C
1514480785.98,4529,5.69,71560.5,-5.83,-6.69,-6.69,0,*64
1514480787.16,4530,5.63,71560.8,-5.83,-6.69,-6.69,0,*6C
1514480788.42,4531,5.63,71560.5,-5.85,-6.63,-6.63,0,*6B
1514480789.65,4532,5.63,71558.5,-5.83,-6.63,-6.63,0,*6E
1514480790.87,4533,5.63,71554.8,-5.83,-6.59,-6.63,0,*66
1514480792.11,4534,5.63,71552.0,-5.83,-6.63,-6.63,0,*68
1514480793.34,4535,5.69,71558.0,-5.83,-6.63,-6.63,0,*69
1514480794.55,4536,5.63,71556.3,-5.83,-6.69,-6.63,0,*60
1514480795.76,4537,5.63,71552.3,-5.85,-6.69,-6.69,0,*6D
1514480796.94,4538,5.63,71550.8,-5.83,-6.69,-6.69,0,*64
1514480798.13,4539,5.63,71548.5,-5.83,-6.77,-6.77,0,*65
1514480799.31,4540,5.63,71552.8,-5.83,-6.69,-6.77,0,*64
1514480800.49,4541,5.63,71548.5,-5.83,-6.69,-6.69,0,*6A
1514480801.73,4542,5.63,71552.0,-5.85,-6.69,-6.63,0,*65
1514480802.94,4543,5.63,71560.5,-5.83,-6.69,-6.63,0,*62
1514480804.15,4544,5.63,71554.3,-5.83,-6.69,-6.63,0,*65
1514480805.37,4545,5.63,71544.8,-5.85,-6.77,-6.77,0,*68
1514480806.58,4546,5.63,71546.3,-5.85,-6.77,-6.77,0,*6B
1514480807.76,4547,5.63,71544.0,-5.83,-6.69,-6.69,0,*6C
1514480808.94,4548,5.63,71548.8,-5.83,-6.69,-6.69,0,*63
1514480810.15,4549,5.63,71558.0,-5.83,-6.63,-6.69,0,*68
1514480811.33,4550,5.63,71554.5,-5.83,-6.69,-6.69,0,*6A
1514480812.52,4551,5.63,71552.0,-5.83,-6.77,-6.77,0,*6B
1514480813.74,4552,5.63,71556.8,-5.85,-6.77,-6.81,0,*67
1514480814.93,4553,5.63,71556.8,-5.83,-6.69,-6.77,0,*66
1514480816.12,4554,5.63,71558.5,-5.83,-6.69,-6.77,0,*61
1514480817.3,4555,5.63,71554.0,-5.83,-6.69,-6.77,0,*60
1514480818.48,4556,5.63,71540.8,-5.83,-6.69,-6.69,0,*6C
1514480819.67,4557,5.63,71536.8,-5.83,-6.69,-6.77,0,*62
1514480820.86,4558,5.63,71534.0,-5.83,-6.77,-6.77,0,*62
1514480822.06,4559,5.63,71538.5,-5.83,-6.77,-6.81,0,*6A
1514480823.25,4560,5.63,71546.8,-5.83,-6.77,-6.81,0,*60
1514480824.45,4561,5.63,71552.5,-5.83,-6.77,-6.77,0,*68
1514480825.63,4562,5.63,71540.0,-5.83,-6.69,-6.77,0,*64
1514480826.83,4563,5.63,71552.8,-5.83,-6.81,-6.81,0,*6A
1514480828.04,4564,5.63,71548.3,-5.85,-6.69,-6.77,0,*64
1514480829.22,4565,5.63,71540.3,-5.83,-6.69,-6.77,0,*63
1514480830.42,4566,5.63,71544.8,-5.83,-6.77,-6.77,0,*6F
1514480831.6,4567,5.63,71546.8,-5.83,-6.69,-6.69,0,*6E
1514480832.78,4568,5.63,71540.5,-5.83,-6.69,-6.77,0,*6E
1514480834.0,4569,5.63,71544.8,-5.85,-6.77,-6.81,0,*6F
1514480835.2,4570,5.63,71530.5,-5.83,-6.77,-6.77,0,*68
1514480836.42,4571,5.63,71522.0,-5.85,-6.81,-6.81,0,*6F
1514480837.61,4572,5.63,71528.0,-5.83,-6.81,-6.89,0,*62
1514480838.8,4573,5.63,71536.3,-5.83,-6.81,-6.89,0,*63
1514480839.99,4574,5.69,71538.5,-5.83,-6.69,-6.81,0,*6A
1514480841.21,4575,5.63,71534.0,-5.85,-6.69,-6.81,0,*6D
1514480842.42,4576,5.63,71528.8,-5.85,-6.77,-6.77,0,*68
1514480843.61,4577,5.63,71520.0,-5.83,-6.69,-6.77,0,*60
1514480844.82,4578,5.63,71522.8,-5.85,-6.69,-6.77,0,*69
1514480846.03,4579,5.63,71530.3,-5.85,-6.69,-6.77,0,*68
1514480847.23,4580,5.63,71536.3,-5.83,-6.63,-6.69,0,*6D
1514480848.41,4581,5.63,71536.8,-5.83,-6.69,-6.69,0,*66
1514480849.59,4582,5.63,71540.5,-5.83,-6.69,-6.69,0,*65
1514480850.77,4583,5.63,71544.8,-5.83,-6.69,-6.69,0,*64
1514480851.96,4584,5.63,71548.5,-5.83,-6.69,-6.69,0,*63
1514480853.14,4585,5.63,71552.3,-5.83,-6.69,-6.77,0,*6D
1514480854.33,4586,5.63,71554.3,-5.83,-6.77,-6.69,0,*6E
1514480855.51,4587,5.63,71558.0,-5.83,-6.69,-6.69,0,*60
1514480856.7,4588,5.63,71548.5,-5.83,-6.69,-6.77,0,*60
1514480857.88,4589,5.63,71552.8,-5.83,-6.69,-6.77,0,*61
1514480859.06,4590,5.63,71548.5,-5.83,-6.69,-6.69,0,*66
1514480860.25,4591,5.63,71552.8,-5.83,-6.77,-6.69,0,*68
1514480861.47,4592,5.63,71548.8,-5.85,-6.77,-6.81,0,*6B
1514480862.67,4593,5.63,71552.0,-5.83,-6.77,-6.81,0,*6C
1514480863.85,4594,5.63,71554.3,-5.83,-6.69,-6.77,0,*6D
1514480865.08,4595,5.63,71550.8,-5.85,-6.77,-6.81,0,*6C
1514480866.29,4596,5.69,71552.3,-5.85,-6.77,-6.77,0,*66
1514480867.48,4597,5.63,71544.3,-5.83,-6.69,-6.77,0,*6E
1514480868.67,4598,5.63,71550.8,-5.83,-6.77,-6.81,0,*67
1514480869.86,4599,5.63,71550.0,-5.83,-6.69,-6.69,0,*6F
1514480871.04,4600,5.63,71544.3,-5.83,-6.69,-6.77,0,*63
1514480872.23,4601,5.63,71544.5,-5.83,-6.77,-6.77,0,*6D
1514480873.43,4602,5.63,71546.3,-5.83,-6.77,-6.81,0,*67
1514480874.63,4603,5.63,71546.0,-5.83,-6.81,-6.81,0,*6F
1514480875.82,4604,5.63,71546.0,-5.83,-6.89,-6.81,0,*60
1514480877.02,4605,5.63,71546.5,-5.83,-6.81,-6.81,0,*69
1514480878.21,4606,5.63,71554.3,-5.83,-6.89,-6.89,0,*6A
1514480879.41,4607,5.63,71552.0,-5.83,-6.81,-6.81,0,*6B
1514480880.61,4608,5.63,71556.0,-5.83,-6.81,-6.81,0,*64
1514480881.81,4609,5.63,71558.5,-5.83,-6.77,-6.81,0,*6C
1514480883.0,4610,5.63,71556.8,-5.83,-6.69,-6.81,0,*6B
1514480884.18,4611,5.63,71560.8,-5.83,-6.69,-6.69,0,*6C
1514480885.38,4612,5.63,71560.8,-5.85,-6.69,-6.69,0,*69
1514480886.56,4613,5.63,71562.3,-5.83,-6.69,-6.69,0,*6E
1514480887.74,4614,5.63,71560.5,-5.83,-6.69,-6.69,0,*69
1514480888.93,4615,5.63,71556.8,-5.83,-6.69,-6.69,0,*68
1514480890.11,4616,5.63,71560.0,-5.83,-6.69,-6.69,0,*6B
1514480891.29,4617,5.63,71558.3,-5.83,-6.69,-6.69,0,*6A
1514480892.48,4618,5.63,71564.8,-5.83,-6.77,-6.69,0,*6A
1514480893.66,4619,5.63,71562.8,-5.83,-6.69,-6.69,0,*64
1514480894.84,4620,5.63,71564.8,-5.83,-6.69,-6.77,0,*61
1514480896.02,4621,5.63,71564.3,-5.83,-6.69,-6.69,0,*6F
1514480897.2,4622,5.63,71566.5,-5.83,-6.69,-6.69,0,*6C
1514480898.41,4623,5.63,71564.8,-5.85,-6.69,-6.69,0,*6B
1514480899.6,4624,5.63,71566.8,-5.83,-6.77,-6.77,0,*6A
1514480900.79,4625,5.63,71564.5,-5.83,-6.77,-6.77,0,*6B
1514480901.99,4626,5.63,71566.5,-5.83,-6.81,-6.81,0,*68
1514480903.18,4627,5.63,71566.5,-5.83,-6.81,-6.77,0,*60
1514480904.37,4628,5.63,71566.5,-5.83,-6.69,-6.77,0,*69
1514480905.55,4629,5.63,71562.3,-5.83,-6.69,-6.77,0,*68
1514480906.74,4630,5.63,71562.3,-5.83,-6.77,-6.89,0,*6E
1514480907.97,4631,5.63,71558.5,-5.85,-6.77,-6.81,0,*61
1514480909.17,4632,5.63,71562.0,-5.85,-6.69,-6.77,0,*64
1514480910.41,4633,5.63,71560.0,-5.79,-6.63,-6.63,0,*69
1514480911.62,4634,5.63,71552.8,-5.79,-6.63,-6.73,0,*6F
1514480912.82,4635,5.63,71548.5,-5.83,-6.77,-6.81,0,*63
1514480914.01,4636,5.63,71552.3,-5.83,-6.69,-6.81,0,*6F
1514480915.21,4637,5.63,71554.8,-5.83,-6.77,-6.77,0,*68
1514480916.4,4638,5.63,71556.5,-5.83,-6.77,-6.81,0,*6E